Weather History for Logan, UT

Change the Weather History Date:

Sunday, February 24, 2013

  Actual Average Record
Temperature  
Mean Temperature 14 °F -  
Max Temperature 26 °F 40 °F 57 °F (1963)
Min Temperature -2 °F 20 °F -12 °F (1974)
Degree Days  
Heating Degree Days 52    
Moisture  
Dew Point 9 °F    
Average Humidity 80    
Maximum Humidity 95    
Minimum Humidity 53    
Precipitation  
Precipitation 0.00 in - - ()
Sea Level Pressure  
Sea Level Pressure 30.18 in    
Wind  
Wind Speed 1 mph (West)    
Max Wind Speed 5 mph    
Max Gust Speed -    
Visibility 4 miles    
Events Fog    
Averages and records for this station are not official NWS values.
T = Trace of Precipitation, MM = Missing Value Source: NWS Daily Summary

Daily Weather History Graph

Daily Weather History Graph

Search for Another Location

Airport:

Trip Planner

Search our weather history database for the weather conditions in past years. The results will help you decide how hot, cold, wet, or windy it might be!

Date:

Astronomy

Feb. 24, 2013 Rise Set
Actual Time 7:09 AM MST 6:12 PM MST
Civil Twilight 6:41 AM MST 6:40 PM MST
Nautical Twilight 6:09 AM MST 7:12 PM MST
Astronomical Twilight 5:37 AM MST 7:44 PM MST
Moon 5:27 PM MST (2/24) 6:09 AM MST (2/24)
Length of Visible Light 11h 58m
Length of Day
11h 02m
Waxing Gibbous, 99% of the Moon is Illuminated
Feb 24
Waxing Gibbous
Feb 25
Full
Mar 4
Last Quarter
Mar 11
New
Mar 19
First Quarter

Hourly Weather History & Observations

Time (MST) Temp. Windchill Dew Point Humidity Pressure Visibility Wind Dir Wind Speed Gust Speed Precip Events Conditions
12:07 AM 19.4 °F - 15.8 °F 86% 29.97 in 0.5 mi Calm Calm - N/A Fog Light Freezing Fog
12:21 AM 19.4 °F 14.3 °F 15.8 °F 86% 29.98 in 0.5 mi WSW 3.5 mph - N/A Fog Light Freezing Fog
12:51 AM 15.1 °F - 10.9 °F 84% 30.09 in 0.2 mi Calm Calm - N/A Fog Light Freezing Fog
1:11 AM 14.0 °F 8.2 °F 10.4 °F 86% 29.99 in 0.2 mi NW 3.5 mph - N/A Fog Light Freezing Fog
1:26 AM 15.8 °F 10.2 °F 12.2 °F 86% 30.00 in 0.5 mi NNW 3.5 mph - N/A Fog Light Freezing Fog
1:46 AM 15.8 °F - 12.2 °F 86% 30.00 in 1.0 mi Calm Calm - N/A   Overcast
1:51 AM 15.1 °F - 10.9 °F 84% 30.11 in 2.0 mi Calm Calm - N/A   Overcast
1:58 AM 15.8 °F - 10.4 °F 79% 29.99 in 1.8 mi Calm Calm - N/A   Overcast
2:05 AM 15.8 °F - 10.4 °F 79% 29.99 in 1.8 mi Calm Calm - N/A   Haze
2:08 AM 15.8 °F - 10.4 °F 79% 30.00 in 1.5 mi Calm Calm - N/A   Overcast
2:14 AM 15.8 °F - 10.4 °F 79% 30.00 in 1.2 mi Calm Calm - N/A   Overcast
2:18 AM 15.8 °F - 12.2 °F 86% 30.00 in 0.8 mi Calm Calm - N/A   Overcast
2:51 AM 16.0 °F - 12.9 °F 88% 30.12 in 0.5 mi Calm Calm - N/A Fog Light Freezing Fog
3:51 AM 14.0 °F 6.5 °F 9.0 °F 80% 30.13 in 0.2 mi West 4.6 mph - N/A   Haze
4:51 AM 14.0 °F - 9.0 °F 80% 30.15 in 0.2 mi Calm Calm - N/A   Haze
5:51 AM 12.9 °F 5.2 °F 10.0 °F 88% 30.18 in 0.2 mi SW 4.6 mph - N/A Fog Light Freezing Fog
6:51 AM 10.0 °F - 6.1 °F 84% 30.22 in 0.2 mi Calm Calm - N/A Fog Light Freezing Fog
7:34 AM 8.6 °F - 3.2 °F 79% 30.10 in 3.0 mi Calm Calm - N/A   Haze
7:51 AM 9.0 °F - 5.0 °F 84% 30.26 in 3.0 mi Calm Calm - N/A   Clear
7:54 AM 6.8 °F - 3.2 °F 85% 30.11 in 1.8 mi Calm Calm - N/A   Partly Cloudy
8:01 AM 8.6 °F 0.1 °F 3.2 °F 79% 30.12 in 1.0 mi ESE 4.6 mph - N/A   Haze
8:08 AM 8.6 °F - 5.0 °F 85% 30.12 in 1.5 mi Calm Calm - N/A   Partly Cloudy
8:20 AM 6.8 °F - 3.2 °F 85% 30.13 in 2.0 mi Calm Calm - N/A   Partly Cloudy
8:38 AM 6.8 °F - 3.2 °F 85% 30.14 in 1.5 mi Calm Calm - N/A   Partly Cloudy
8:45 AM 6.8 °F - 3.2 °F 85% 30.14 in 4.0 mi Calm Calm - N/A   Partly Cloudy
8:51 AM 8.1 °F - 7.0 °F 95% 30.30 in 5.0 mi Calm Calm - N/A   Partly Cloudy
9:08 AM 12.2 °F - 8.6 °F 85% 30.15 in 2.5 mi Calm Calm - N/A   Haze
9:20 AM 10.4 °F - 6.8 °F 85% 30.16 in 4.0 mi Calm Calm - N/A   Haze
9:51 AM 15.1 °F 9.4 °F 10.9 °F 84% 30.32 in 6.0 mi South 3.5 mph - N/A   Clear
10:51 AM 19.0 °F - 12.9 °F 77% 30.31 in 9.0 mi Calm Calm - N/A   Clear
11:51 AM 23.0 °F - 15.1 °F 72% 30.29 in 10.0 mi Calm Calm - N/A   Clear
12:51 PM 23.0 °F - 12.9 °F 65% 30.31 in 10.0 mi Calm Calm - N/A   Clear
1:51 PM 26.1 °F - 12.9 °F 58% 30.29 in 10.0 mi Calm Calm - N/A   Clear
2:51 PM 24.1 °F 18.2 °F 15.1 °F 69% 30.30 in 10.0 mi West 4.6 mph - N/A   Clear
3:51 PM 26.1 °F - 10.9 °F 53% 30.32 in 10.0 mi Calm Calm - N/A   Clear
4:51 PM 25.0 °F - 10.9 °F 55% 30.33 in 10.0 mi Calm Calm - N/A   Clear
5:51 PM 23.0 °F 18.4 °F 10.9 °F 60% 30.36 in 10.0 mi East 3.5 mph - N/A   Clear
6:51 PM 16.0 °F - 10.0 °F 77% 30.40 in 10.0 mi Calm Calm - N/A   Clear
7:51 PM 12.0 °F - 6.1 °F 77% 30.43 in 10.0 mi Calm Calm - N/A   Clear
8:51 PM 10.0 °F - 5.0 °F 80% 30.45 in 10.0 mi Calm Calm - N/A   Clear
9:51 PM 8.1 °F - 1.9 °F 76% 30.44 in 10.0 mi Calm Calm - N/A   Clear
10:40 PM 1.4 °F -6.2 °F -0.4 °F 92% 30.26 in 1.8 mi WNW 3.5 mph - N/A   Clear
10:51 PM -2.9 °F -11.2 °F -6.0 °F 87% 30.48 in 4.0 mi North 3.5 mph - N/A   Clear